sat.trackr.live / text

‹ back to catalog

GSAT0221 (GALILEO 25)

NORAD 43564 · 2018-060A

PAYLOAD ACTIVE UNKNOWN

§ Identity

Operator
Country
ESA
Launch date
2018-07-25
Launch site
FRGUI
Launch vehicle
Mass (kg)
RCS (m²)

Purposes: earth_obs, nav

External: N2YO · Heavens-Above · Gunter

§ Orbital elements

Epoch: 2026-09-20T02:11:46.629024Z

Period
844.69 min
Inclination
57.1307°
Eccentricity
0.0004716
Mean motion
1.70476424 rev/d
Perigee alt
23,207.9 km
Apogee alt
23,235.9 km
Semi-major
29,600.0 km
B*
0.0000e+0
RAAN
339.2176°
Arg perigee
270.4507°
Mean anomaly
89.5496°
Rev number
5,078

§ Raw data

GSAT0221 (GALILEO 25)1 43564U 18060A   26263.09151191 -.00000088  00000+0  00000+0 0  99982 43564  57.1307 339.2176 0004716 270.4507  89.5496  1.70476424 50787

JSON: /api/v1/satellites/43564 · /tle

For live sub-satellite position, see the globe view (requires WebGL).

§ Visibility from observer

Set your observer location to see the next 7 days of passes ≥ 10°. The values pass through the URL so the page stays shareable.

No JS? Fill the form by hand. The geolocation button needs JavaScript.